Hebbronville, TX

11:48 PM CDT on June 22, 2018 (GMT -0500)
Hogg County

Weather History for KHBV - February, 2013

Change the Weather History Date:

Friday, February 22, 2013

  Actual Average (KALI) Record (KALI)
Temperature  
Mean Temperature 66 °F -  
Max Temperature 76 °F 70 °F 93 °F (2017)
Min Temperature 56 °F 49 °F 39 °F (2009)
Cooling Degree Days 1    
Growing Degree Days 16 (Base 50)    
Moisture  
Dew Point 35 °F    
Average Humidity 34    
Maximum Humidity 52    
Minimum Humidity 16    
Precipitation  
Precipitation 0.00 in - - ()
Sea Level Pressure  
Sea Level Pressure 29.88 in    
Wind  
Wind Speed 9 mph (NE)    
Max Wind Speed 20 mph    
Max Gust Speed 25 mph    
Visibility 9 miles    
Events      
Averages and records for this station are not official NWS values.
T = Trace of Precipitation, MM = Missing Value Source: NWS Daily Summary

Daily Weather History Graph

Daily Weather History Graph

Search for Another Location

Airport or City:

Astronomy

Feb. 22, 2013 Rise Set
Actual Time 7:05 AM CST 6:31 PM CST
Civil Twilight 6:41 AM CST 6:55 PM CST
Nautical Twilight 6:14 AM CST 7:22 PM CST
Astronomical Twilight 5:47 AM CST 7:49 PM CST
Moon 3:54 PM CST (2/22) 4:40 AM CST (2/22)
Length of Visible Light 12h 13m
Length of Day
11h 26m
Waxing Gibbous, 90% of the Moon is Illuminated
Feb 22
Waxing Gibbous
Feb 25
Full
Mar 4
Last Quarter
Mar 11
New
Mar 19
First Quarter

Hourly Weather History & Observations

Time (CST) Temp. Dew Point Humidity Pressure Visibility Wind Dir Wind Speed Gust Speed Precip Events Conditions
12:15 AM 58.3 °F 35.1 °F 42% 29.84 in 10.0 mi NNW 4.6 mph - N/A   Clear
12:35 AM 58.8 °F 35.8 °F 42% 29.84 in 10.0 mi NNW 4.6 mph - N/A   Clear
12:55 AM 58.8 °F 36.5 °F 43% 29.85 in 10.0 mi NNW 4.6 mph - N/A   Clear
1:15 AM 58.3 °F 37.4 °F 46% 29.86 in 10.0 mi NW 5.8 mph - N/A   Clear
1:35 AM 58.3 °F 37.9 °F 47% 29.87 in 10.0 mi Calm Calm - N/A   Scattered Clouds
1:55 AM 57.6 °F 37.9 °F 48% 29.86 in 10.0 mi NW 3.5 mph - N/A   Scattered Clouds
2:15 AM 57.4 °F 38.3 °F 49% 29.86 in 10.0 mi NNW 3.5 mph - N/A   Clear
2:35 AM 57.0 °F 38.3 °F 50% 29.85 in 10.0 mi NW 4.6 mph - N/A   Clear
2:55 AM 57.0 °F 38.7 °F 50% 29.84 in 10.0 mi NW 5.8 mph - N/A   Clear
3:15 AM 56.8 °F 39.2 °F 52% 29.84 in 10.0 mi NW 5.8 mph - N/A   Clear
3:35 AM 57.7 °F 39.6 °F 51% 29.83 in 10.0 mi NW 6.9 mph - N/A   Clear
3:55 AM 58.1 °F 39.2 °F 49% 29.83 in 10.0 mi NNW 6.9 mph - N/A   Clear
4:15 AM 58.1 °F 39.2 °F 49% 29.82 in 10.0 mi NNW 6.9 mph - N/A   Clear
4:35 AM 58.1 °F 39.7 °F 50% 29.82 in 10.0 mi North 4.6 mph - N/A   Clear
4:55 AM 58.3 °F 40.1 °F 51% 29.83 in 10.0 mi North 5.8 mph - N/A   Clear
5:15 AM 58.5 °F 40.3 °F 51% 29.84 in 10.0 mi North 5.8 mph - N/A   Clear
5:35 AM 59.4 °F 40.1 °F 49% 29.84 in 10.0 mi North 6.9 mph - N/A   Clear
6:15 AM 59.9 °F 40.8 °F 49% 29.85 in 7.0 mi North 5.8 mph - N/A   Clear
6:35 AM 60.1 °F 41.2 °F 50% 29.86 in 7.0 mi NNE 5.8 mph - N/A   Clear
6:55 AM 60.4 °F 41.9 °F 50% 29.86 in 10.0 mi North 6.9 mph - N/A   Clear
7:15 AM 60.4 °F 42.8 °F 52% 29.87 in 10.0 mi NNE 8.1 mph - N/A   Clear
7:35 AM 61.0 °F 42.8 °F 51% 29.89 in 7.0 mi North 8.1 mph - N/A   Clear
7:55 AM 61.2 °F 42.8 °F 51% 29.90 in 7.0 mi NNE 10.4 mph - N/A   Scattered Clouds
8:15 AM 61.7 °F 42.6 °F 50% 29.91 in 7.0 mi NNE 10.4 mph - N/A   Mostly Cloudy
8:35 AM 62.6 °F 40.3 °F 44% 29.92 in 7.0 mi NNE 11.5 mph 17.3 mph N/A   Scattered Clouds
8:55 AM 63.5 °F 37.2 °F 38% 29.93 in 7.0 mi NE 9.2 mph 17.3 mph N/A   Mostly Cloudy
9:15 AM 64.2 °F 34.9 °F 34% 29.93 in 7.0 mi NE 15.0 mph - N/A   Overcast
9:35 AM 65.1 °F 32.9 °F 30% 29.94 in 7.0 mi NE 15.0 mph 19.6 mph N/A   Overcast
9:55 AM 66.0 °F 31.1 °F 27% 29.93 in 7.0 mi NE 17.3 mph 20.7 mph N/A   Overcast
10:15 AM 67.3 °F 28.9 °F 24% 29.93 in 7.0 mi NE 19.6 mph 23.0 mph N/A   Mostly Cloudy
10:35 AM 68.2 °F 26.6 °F 21% 29.94 in 7.0 mi NE 17.3 mph - N/A   Overcast
10:55 AM 68.9 °F 23.0 °F 18% 29.93 in 7.0 mi ENE 16.1 mph 21.9 mph N/A   Overcast
11:15 AM 69.6 °F 21.0 °F 16% 29.93 in 7.0 mi ENE 17.3 mph 25.3 mph N/A   Overcast
11:35 AM 70.2 °F 22.1 °F 16% 29.92 in 7.0 mi ENE 17.3 mph 21.9 mph N/A   Mostly Cloudy
11:55 AM 70.9 °F 23.7 °F 17% 29.93 in 7.0 mi ENE 13.8 mph 21.9 mph N/A   Mostly Cloudy
12:15 PM 71.2 °F 24.8 °F 18% 29.92 in 7.0 mi ENE 15.0 mph - N/A   Overcast
12:35 PM 72.1 °F 26.1 °F 18% 29.91 in 7.0 mi ENE 16.1 mph - N/A   Mostly Cloudy
12:55 PM 72.9 °F 27.7 °F 19% 29.90 in 7.0 mi ENE 12.7 mph - N/A   Mostly Cloudy
1:15 PM 72.9 °F 28.8 °F 20% 29.89 in 7.0 mi NE 15.0 mph 18.4 mph N/A   Overcast
1:35 PM 73.0 °F 28.8 °F 19% 29.88 in 7.0 mi NE 15.0 mph 19.6 mph N/A   Overcast
1:55 PM 73.2 °F 28.9 °F 19% 29.87 in 7.0 mi NE 13.8 mph - N/A   Scattered Clouds
2:15 PM 73.6 °F 29.1 °F 19% 29.86 in 7.0 mi ENE 16.1 mph 24.2 mph N/A   Clear
2:35 PM 74.5 °F 29.7 °F 19% 29.85 in 7.0 mi ENE 13.8 mph 20.7 mph N/A   Clear
2:55 PM 74.8 °F 30.4 °F 20% 29.84 in 7.0 mi NE 15.0 mph - N/A   Clear
3:15 PM 75.6 °F 30.9 °F 19% 29.83 in 10.0 mi ENE 15.0 mph 20.7 mph N/A   Clear
3:35 PM 75.9 °F 32.0 °F 20% 29.83 in 7.0 mi NNE 13.8 mph 17.3 mph N/A   Scattered Clouds
3:55 PM 75.6 °F 32.0 °F 20% 29.83 in 7.0 mi NE 12.7 mph 18.4 mph N/A   Clear
4:15 PM 76.1 °F 32.0 °F 20% 29.83 in 7.0 mi ENE 13.8 mph 18.4 mph N/A   Clear
4:35 PM 75.9 °F 32.5 °F 20% 29.83 in 7.0 mi ENE 13.8 mph 19.6 mph N/A   Clear
4:55 PM 75.4 °F 32.0 °F 20% 29.83 in 10.0 mi ENE 12.7 mph - N/A   Clear
5:15 PM 75.2 °F 31.6 °F 20% 29.83 in 7.0 mi East 15.0 mph - N/A   Clear
5:35 PM 74.3 °F 32.2 °F 21% 29.84 in 7.0 mi ENE 13.8 mph 19.6 mph N/A   Clear
5:55 PM 72.9 °F 33.4 °F 24% 29.85 in 10.0 mi ENE 12.7 mph - N/A   Clear
6:15 PM 71.6 °F 32.7 °F 24% 29.85 in 7.0 mi ENE 10.4 mph - N/A   Clear
6:35 PM 70.3 °F 33.1 °F 25% 29.86 in 10.0 mi ENE 10.4 mph - N/A   Clear
6:55 PM 69.3 °F 33.4 °F 27% 29.88 in 7.0 mi ENE 9.2 mph - N/A   Clear
7:15 PM 68.0 °F 34.5 °F 29% 29.89 in 10.0 mi ENE 9.2 mph - N/A   Clear
7:35 PM 66.9 °F 35.1 °F 31% 29.89 in 10.0 mi East 5.8 mph - N/A   Clear
7:55 PM 65.8 °F 35.4 °F 32% 29.89 in 10.0 mi NE 8.1 mph - N/A   Clear
8:15 PM 66.0 °F 35.8 °F 33% 29.89 in 10.0 mi ENE 8.1 mph - N/A   Mostly Cloudy
8:35 PM 66.9 °F 36.1 °F 32% 29.90 in 10.0 mi ENE 13.8 mph 17.3 mph N/A   Overcast
8:55 PM 67.1 °F 36.9 °F 33% 29.91 in 7.0 mi ENE 11.5 mph - N/A   Overcast
9:15 PM 66.9 °F 37.6 °F 34% 29.93 in 10.0 mi ENE 10.4 mph - N/A   Overcast
9:35 PM 66.6 °F 37.2 °F 34% 29.93 in 10.0 mi NE 11.5 mph - N/A   Overcast
9:55 PM 65.5 °F 36.1 °F 34% 29.93 in 10.0 mi NE 11.5 mph - N/A   Overcast
10:15 PM 65.3 °F 36.9 °F 35% 29.93 in 10.0 mi ENE 13.8 mph - N/A   Overcast
10:35 PM 64.8 °F 37.4 °F 36% 29.94 in 10.0 mi ENE 12.7 mph - N/A   Overcast
10:55 PM 64.6 °F 37.6 °F 37% 29.95 in 10.0 mi NE 11.5 mph - N/A   Overcast
11:15 PM 64.0 °F 38.1 °F 38% 29.95 in 10.0 mi NE 10.4 mph - N/A   Overcast
11:35 PM 63.7 °F 38.5 °F 39% 29.94 in 10.0 mi NE 13.8 mph - N/A   Overcast
11:55 PM 63.0 °F 38.7 °F 41% 29.95 in 10.0 mi NE 11.5 mph 17.3 mph N/A   Overcast